Tracking 18980 objects as of 20-Feb-2018
HD Live streaming from Space Station
objects crossing your sky now

FENGYUN 1C DEB

Track FENGYUN 1C DEB now!
10-day predictions


NORAD ID: 31430
Int'l Code: 1999-025BTS
Perigee: 824.2 km
Apogee: 867.2 km
Inclination: 99.0 °
Period: 101.7 minutes
Semi major axis: 7216 km
RCS: 0.011 m2 (small)
Launch date: May 10, 1999
Source: People's Republic of China (PRC)
Launch site: Taiyaun Space Center, China (TSC)

Note: This is SATELLITE DEBRIS
aabbcc
Your satellite tracking list
Your tracking list is empty




NASA's NSSDC Master Catalog

Two Line Element Set (TLE):
1 31430U 99025BTS 18050.59018488 +.00000356 +00000-0 +20281-3 0  9993
2 31430 099.0016 075.4565 0029781 282.3894 204.0768 14.16100628557309
Source of the keplerian elements: AFSPC